GW0458 Weather Reports


Display with metric or nautical units.
time (UTC)temp
F
wind
direction
speed
MPH
gust
MPH
rain 1hr
in
rain 24hr
in
rain mn
in
humidity
%
barometer
mb
20260902144048 57 203 0.0 0.0 0.00 0.00 0.00 99 1015.2
20260902141049 56 198 2.0 2.0 0.00 0.00 0.00 99 1015.3
20260902134046 56 190 1.0 1.0 0.00 0.00 0.00 99 1015.6
20260902131045 57 190 0.0 0.0 0.00 0.00 0.00 99 1015.6
20260902124042 58 186 0.0 0.0 0.00 0.00 0.00 99 1015.9
20260902121040 58 185 0.0 0.0 0.00 0.00 0.00 99 1015.8
20260902114036 58 121 1.0 1.0 0.00 0.00 0.00 99 1016.3
20260902111033 58 189 1.0 1.0 0.00 0.00 0.00 99 1016.3
20260902104032 58 186 2.0 2.0 0.00 0.00 0.00 99 1016.6
20260902101028 58 197 1.0 1.0 0.00 0.00 0.00 99 1016.8
20260902094024 59 199 1.0 1.0 0.00 0.00 0.00 99 1016.8
20260902091023 59 183 1.0 1.0 0.00 0.00 0.00 99 1017.0
20260902084023 59 194 0.0 0.0 0.00 0.00 0.00 98 1017.1
20260902081018 59 187 1.0 1.0 0.00 0.00 0.00 97 1017.3
20260902074012 59 175 2.0 2.0 0.00 0.00 0.00 97 1017.6
20260902071010 59 216 1.0 2.0 0.00 0.00 0.00 98 1018.0
20260902064009 59 194 2.0 2.0 0.00 0.00 0.00 99 1017.8
20260902061006 59 190 0.0 1.0 0.00 0.00 0.00 99 1017.8
20260902054002 59 193 1.0 1.0 0.00 0.00 0.00 99 1018.1
20260902050958 59 171 2.0 2.0 0.00 0.00 0.00 99 1018.1
20260902043953 59 197 0.0 0.0 0.00 0.00 0.00 99 1018.1
20260902040950 59 200 0.0 0.0 0.00 0.00 0.00 99 1018.4
20260902033950 59 192 1.0 1.0 0.00 0.00 0.00 98 1018.3
20260902030948 60 201 0.0 0.0 0.00 0.00 0.00 95 1018.1
20260902023944 64 206 0.0 0.0 0.00 0.00 0.00 85 1018.1
20260902020943 64 207 0.0 0.0 0.00 0.00 0.00 85 1017.8
20260902013939 64 206 0.0 0.0 0.00 0.00 0.00 84 1017.5
20260902010939 65 197 0.0 1.0 0.00 0.00 0.00 82 1017.9
20260902003936 65 200 0.0 0.0 0.00 0.00 0.00 82 1017.9
20260902000934 66 211 0.0 0.0 0.00 0.00 0.00 82 1017.6
20260901233932 65 209 1.0 2.0 0.00 0.00 0.00 80 1017.8
20260901230930 65 207 0.0 0.0 0.00 0.00 0.00 83 1017.8
20260901223929 65 220 0.0 1.0 0.00 0.00 0.00 82 1017.6
20260901220925 66 208 0.0 1.0 0.00 0.00 0.00 81 1017.9
20260901213925 65 212 1.0 1.0 0.00 0.00 0.00 81 1017.8
20260901210920 65 201 0.0 1.0 0.00 0.00 0.00 82 1017.9
20260901203915 64 186 2.0 3.0 0.00 0.00 0.00 83 1018.1
20260901200913 65 225 3.0 5.0 0.00 0.00 0.00 82 1018.1
20260901193910 64 200 3.0 3.0 0.00 0.00 0.00 82 1018.2
20260901190910 64 157 3.0 3.0 0.00 0.00 0.00 83 1018.5
20260901183910 64 192 1.0 1.0 0.00 0.00 0.00 83 1018.6
20260901180906 63 200 0.0 1.0 0.00 0.00 0.00 85 1018.5
20260901173904 62 199 0.0 0.0 0.00 0.00 0.00 88 1018.3
20260901170902 61 200 0.0 0.0 0.00 0.00 0.00 89 1018.3
20260901163900 59 190 1.0 1.0 0.00 0.00 0.00 93 1018.1
20260901160855 58 190 1.0 2.0 0.00 0.00 0.00 94 1018.5
20260901153854 58 186 2.0 2.0 0.00 0.00 0.00 96 1018.6
20260901150854 57 186 1.0 1.0 0.00 0.00 0.00 97 1018.6